Weather History for Houghton, MI

Change the Weather History Date:

Tuesday, May 28, 2013

  Actual Average Record
Temperature  
Mean Temperature 50 °F -  
Max Temperature 55 °F 67 °F 95 °F (1969)
Min Temperature 46 °F 45 °F 30 °F (2004)
Degree Days  
Heating Degree Days 14    
Moisture  
Dew Point 40 °F    
Average Humidity 66    
Maximum Humidity 89    
Minimum Humidity 52    
Precipitation  
Precipitation 0.00 in - - ()
Sea Level Pressure  
Sea Level Pressure 29.84 in    
Wind  
Wind Speed 7 mph (ENE)    
Max Wind Speed 13 mph    
Max Gust Speed -    
Visibility 10 miles    
Events      
Averages and records for this station are not official NWS values.
T = Trace of Precipitation, MM = Missing Value Source: NWS Daily Summary

Daily Weather History Graph

Daily Weather History Graph

Search for Another Location

Airport:

Trip Planner

Search our weather history database for the weather conditions in past years. The results will help you decide how hot, cold, wet, or windy it might be!

Date:

Astronomy

May. 28, 2013 Rise Set
Actual Time 6:04 AM EDT 9:38 PM EDT
Civil Twilight 5:26 AM EDT 10:16 PM EDT
Nautical Twilight 4:35 AM EDT 11:08 PM EDT
Astronomical Twilight 3:27 AM EDT 12:17 AM EDT
Moon 12:11 AM EDT 9:59 AM EDT
Length of Visible Light 16h 50m
Length of Day
15h 33m
Waning Gibbous, 83% of the Moon is Illuminated
May 28
Waning Gibbous
May 31
Last Quarter
Jun 8
New
Jun 16
First Quarter
Jun 23
Full

Hourly Weather History & Observations

Time (EDT) Temp. Windchill Dew Point Humidity Pressure Visibility Wind Dir Wind Speed Gust Speed Precip Events Conditions
12:53 AM 48.0 °F - 33.1 °F 56% 29.98 in 10.0 mi NE 5.8 mph - N/A   Clear
1:53 AM 46.0 °F 43.9 °F 34.0 °F 63% 29.96 in 10.0 mi NE 4.6 mph - N/A   Clear
2:53 AM 48.9 °F - 33.1 °F 54% 29.94 in 10.0 mi ENE 8.1 mph - N/A   Clear
3:53 AM 50.0 °F - 33.1 °F 52% 29.91 in 10.0 mi ENE 6.9 mph - N/A   Scattered Clouds
4:53 AM 50.0 °F - 34.0 °F 54% 29.91 in 10.0 mi ENE 4.6 mph - N/A   Mostly Cloudy
5:53 AM 50.0 °F - 34.0 °F 54% 29.90 in 10.0 mi ENE 6.9 mph - N/A   Overcast
6:53 AM 48.9 °F - 34.0 °F 56% 29.89 in 10.0 mi ENE 6.9 mph - N/A   Overcast
7:53 AM 48.9 °F - 35.1 °F 59% 29.89 in 10.0 mi East 6.9 mph - N/A   Overcast
8:53 AM 48.9 °F - 36.0 °F 61% 29.88 in 10.0 mi ENE 8.1 mph - N/A   Overcast
9:53 AM 51.1 °F - 37.0 °F 59% 29.87 in 10.0 mi ENE 5.8 mph - N/A   Overcast
10:53 AM 53.1 °F - 37.9 °F 57% 29.86 in 10.0 mi East 9.2 mph - N/A   Overcast
11:53 AM 53.1 °F - 37.9 °F 57% 29.86 in 10.0 mi East 6.9 mph - N/A   Overcast
12:53 PM 53.1 °F - 37.9 °F 57% 29.86 in 10.0 mi East 6.9 mph - N/A   Overcast
1:53 PM 54.0 °F - 39.0 °F 57% 29.83 in 10.0 mi East 11.5 mph - N/A   Overcast
2:49 PM 55.4 °F - 39.2 °F 54% 29.80 in 10.0 mi East 12.7 mph - N/A   Overcast
2:53 PM 54.0 °F - 39.9 °F 59% 29.81 in 10.0 mi ESE 12.7 mph - N/A   Overcast
3:53 PM 52.0 °F - 44.1 °F 74% 29.81 in 10.0 mi East 8.1 mph - N/A   Overcast
4:18 PM 51.8 °F - 44.6 °F 76% 29.79 in 10.0 mi East 8.1 mph - N/A   Overcast
4:53 PM 53.1 °F - 44.1 °F 71% 29.80 in 10.0 mi East 9.2 mph - N/A   Overcast
5:00 PM 53.6 °F - 42.8 °F 67% 29.78 in 10.0 mi ENE 9.2 mph - N/A   Overcast
5:53 PM 52.0 °F - 44.1 °F 74% 29.79 in 10.0 mi East 9.2 mph - N/A   Overcast
6:53 PM 52.0 °F - 44.1 °F 74% 29.78 in 10.0 mi East 8.1 mph - N/A   Overcast
7:53 PM 51.1 °F - 45.0 °F 80% 29.78 in 10.0 mi East 10.4 mph - N/A   Partly Cloudy
8:53 PM 51.1 °F - 46.0 °F 83% 29.77 in 10.0 mi East 6.9 mph - N/A   Overcast
9:53 PM 50.0 °F - 46.9 °F 89% 29.76 in 10.0 mi East 4.6 mph - N/A   Overcast
10:53 PM 50.0 °F - 46.0 °F 86% 29.76 in 10.0 mi Calm Calm - N/A   Overcast
11:53 PM 50.0 °F - 46.9 °F 89% 29.75 in 10.0 mi NE 4.6 mph - N/A   Overcast